Tracking 19177 objects as of 24-May-2018
HD Live streaming from Space Station
objects crossing your sky now

OPS 9314 (IDSCS 4)

Track OPS 9314 (IDSCS 4) now!
OPS 9314 (IDSCS 4) is classified as:


NORAD ID: 2218
Int'l Code: 1966-053E
Perigee: 33,706.6 km
Apogee: 34,014.8 km
Inclination: 3.2 °
Period: 1,338.5 minutes
Semi major axis: 40231 km
RCS: 0.1 m2 (medium)
Launch date: June 16, 1966
Source: United States (US)
Launch site: AIR FORCE EASTERN TEST RANGE (AFETR)
aabbcc
Your satellite tracking list
Your tracking list is empty




NASA's NSSDC Master Catalog

Two Line Element Set (TLE):
1  2218U 66053E   18143.85186674 -.00000079 +00000-0 +00000-0 0  9992
2  2218 003.2481 059.3061 0038293 126.5216 009.5939 01.07584660203709
Source of the keplerian elements: AFSPC